Regional Weather Roundup
Issued by NWS

Home | Current Version | Previous Version | Text Only | Print | Product List | Glossary On
Versions: 1 2 3 4 5 6 7 8 9 10 11 12 13 14 15 16 17 18 19 20 21 22 23 24 25 26 27 28 29 30 31 32 33 34 35 36 37 38 39 40 41 42 43 44 45 46 47 48 49 50
000
ASUS43 KDTX 210210
RWRMI
MICHIGAN HOURLY REGIONAL WEATHER ROUNDUP
NATIONAL WEATHER SERVICE DETROIT/PONTIAC MI
ISSUED BY NATIONAL WEATHER SERVICE GRAND RAPIDS MI
900 PM EST MON FEB 20 2017

NOTE: "FAIR" INDICATES FEW OR NO CLOUDS BELOW 12,000 FEET WITH NO
SIGNIFICANT WEATHER AND/OR OBSTRUCTION TO VISIBILITY.

MIZ047>049-052>055-059>063-066>070-074>076-081>083-210300-
SOUTHEAST LOWER MICHIGAN

CITY           SKY/WX    TMP DP  RH WIND       PRES   REMARKS
ADRIAN         CLOUDY    36  31  82 SE12      30.16F WCI  28
ALMA           CLOUDY    45  32  62 E9        30.11F
ANN ARBOR      CLOUDY    39  31  72 E5        30.17S
BAD AXE        CLOUDY    39  32  76 SE8       30.17F WCI  33
DETROIT CITY   CLOUDY    38  29  70 SE10      30.18F WCI  31
DETROIT        CLOUDY    39  28  64 E9        30.18F WCI  33
FLINT          CLOUDY    41  30  65 SE13      30.14F
GROSSE ILE     CLOUDY    37  28  70 E6        30.17F WCI  33
HILLSDALE      CLOUDY    37  30  75 E12       30.12F WCI  30
HOWELL         CLOUDY    41  32  68 SE10      30.15R

CITY           SKY/WX    TMP DP  RH WIND       PRES   REMARKS
JACKSON        CLOUDY    42  30  62 SE15      30.12F
LANSING        CLOUDY    46  32  58 SE15      30.11F
MASON          CLOUDY    44  33  65 SE14      30.11F
MONROE         CLOUDY    36  31  82 E10G16    30.17S WCI  29
MT. CLEMENS    CLOUDY    38  30  73 SE8       30.18F WCI  32
PONTIAC        CLOUDY    39  30  70 SE12      30.15F WCI  32
PORT HOPE        N/A     38  33  82 SE9       30.16F WCI  31
PORT HURON     CLOUDY    39  30  70 SE7       30.20F WCI  34
TRI CITIES     CLOUDY    42  33  70 SE13      30.14F
YPSILANTI      CLOUDY    40  30  67 E14       30.18F WCI  32
$$
MIZ043>046-050>051-056>058-064>065-071>073-077>080-210300-
SOUTHWEST LOWER MICHIGAN

CITY           SKY/WX    TMP DP  RH WIND       PRES   REMARKS
BATTLE CREEK   CLOUDY    48  34  58 SE12      30.09F
BENTON HARBOR  CLOUDY    58  41  53 SE14      30.00F
BIG RAPIDS     CLOUDY    45  34  66 SE9       30.05F
COLDWATER      CLOUDY    44  30  59 SE9       30.12R
HOLLAND        PTCLDY    54  38  54 SE14      30.02F
GRAND RAPIDS   CLOUDY    50  33  52 SE12      30.06S
KALAMAZOO      CLOUDY    50  34  54 SE9       30.09S
MARSHALL       CLOUDY    44  32  62 E8        30.11S
MOUNT PLEASANT CLOUDY    43  33  67 SE10      30.10F
MUSKEGON       CLOUDY    55  36  48 SE18G26   29.99F
STURGIS        CLOUDY    47  36  65 SE13G20   30.08F
$$
MIZ016>042-210300-
NORTHERN LOWER MICHIGAN

CITY           SKY/WX    TMP DP  RH WIND       PRES   REMARKS
ALPENA         CLOUDY    35  30  82 SE12      30.16F WCI  27
BEAVER ISLAND  CLOUDY    40  32  72 SE15G23   29.99F WCI  32
BELLAIRE       CLOUDY    45  33  64 SE12      30.02F
CADILLAC       CLOUDY    42  33  71 SE12      30.03F
CHARLEVOIX     CLOUDY    45  32  62 SE20G26   30.02F
GAYLORD        CLOUDY    39  29  67 SE17      30.05F WCI  30
HOUGHTON LAKE  CLOUDY    38  32  79 SE12      30.09F WCI  30
MANISTEE       CLOUDY    50  36  58 SE13G21   29.97F
OSCODA         CLOUDY    39  32  77 SE12      30.16F WCI  31
PELLSTON       CLOUDY    37  28  70 SE15      30.06F WCI  28
TRAVERSE CITY  CLOUDY    48  33  56 S12G24    29.98F
LUDINGTON      CLOUDY    53  37  53 SE15G23   29.96F
$$
MIZ007>008-015-210300-
EASTERN UPPER MICHIGAN

CITY           SKY/WX    TMP DP  RH WIND       PRES   REMARKS
KINROSS        MOCLDY    33  25  72 SE20G26   30.07F WCI  21
MACKINAC ISLAN CLOUDY    33  28  83 E16G28    30.05F WCI  23
NEWBERRY       MOCLDY    35  29  80 SE20      30.00S WCI  24
S. S. MARIE    CLOUDY    33  17  51 SE17G26   30.10F WCI  22
$$
MIZ004>006-011>014-085-210300-
CENTRAL UPPER MICHIGAN

CITY           SKY/WX    TMP DP  RH WIND       PRES   REMARKS
MANISTIQUE     DRIZZLE   36  33  90 E16G24    29.97S WCI  26
ESCANABA       LGT RAIN  39  35  86 E10       29.90F WCI  32
MENOMINEE      LGT RAIN  45  39  79 S20G26    29.87F
SAWYER-GWINN   CLOUDY    39  34  81 S20G29    29.83F WCI  30
$$
MIZ001>003-009>011-084-210300-
WESTERN UPPER MICHIGAN

CITY           SKY/WX    TMP DP  RH WIND       PRES   REMARKS
IRON MOUNTAIN  RAIN      40  36  86 SE10      29.83F FOG     WCI  33
HOUGHTON       LGT RAIN  40  37  89 SE9       29.73F FOG     WCI  34
COPPER HARBOR    N/A     38  35  89 S14G31    29.75  WCI  30
IRONWOOD       LGT RAIN  48  46  93 S16G24    29.67S
$$

ABBREVIATIONS USED IN REMARKS
   TC - TEMPERATURE IN CELSIUS
  WCI - WIND CHILL INDEX
   HX - HEAT INDEX
  VSB - VISIBILITY




USA.gov is the U.S. government's official web portal to all federal, state and local government web resources and services.